ENT4032 DTNH-EPKT

Flight info

Callsign ENT4032
Flight time 2h 8m
Altitude 36000
Route VAXAL1C VAXAL UM734 ADRIL DCT ICANI DCT NIKOL/N0448F370 DCT NAVTI/N0451F390 DCT BAVOK
Aircraft B738/M-SDFGHIJ1RWXY/EB1

Departure

Time 2026-05-07 15:01
Airport Enfidha - Hammamet International Airport (DTNH)

Arrival

Time 2026-05-07 17:09
Airport Katowice Wojciech Korfanty International Airport (EPKT)
Time Latitude Longitude Altitude Speed Heading
2026-05-07 14:31 36.08276 10.44109 17 ft 0 kts 307°
2026-05-07 14:52 36.08274 10.44113 15 ft 3 kts 307°
2026-05-07 14:52 36.08258 10.44139 16 ft 4 kts 306°
2026-05-07 14:52 36.08243 10.44167 16 ft 4 kts 292°
2026-05-07 14:53 36.08240 10.44193 18 ft 4 kts 232°
2026-05-07 14:53 36.08243 10.44198 17 ft 1 kts 217°
2026-05-07 14:56 36.08234 10.44190 18 ft 6 kts 216°
2026-05-07 14:56 36.08179 10.44126 19 ft 16 kts 225°
2026-05-07 14:56 36.08073 10.43994 25 ft 26 kts 227°
2026-05-07 14:57 36.08020 10.43807 25 ft 20 kts 217°
2026-05-07 14:57 36.07882 10.43800 26 ft 20 kts 181°
2026-05-07 14:57 36.07754 10.43770 28 ft 19 kts 238°
2026-05-07 14:57 36.07748 10.43604 26 ft 21 kts 271°
2026-05-07 14:58 36.07748 10.43402 27 ft 27 kts 270°
2026-05-07 14:58 36.07749 10.43160 26 ft 27 kts 271°
2026-05-07 14:58 36.07751 10.42935 30 ft 25 kts 270°
2026-05-07 14:58 36.07751 10.42724 30 ft 24 kts 270°
2026-05-07 14:59 36.07752 10.42526 32 ft 23 kts 270°
2026-05-07 14:59 36.07753 10.42334 32 ft 22 kts 270°
2026-05-07 14:59 36.07753 10.42150 29 ft 21 kts 270°
2026-05-07 14:59 36.07709 10.42045 29 ft 13 kts 186°
2026-05-07 15:00 36.07621 10.42049 30 ft 13 kts 166°
2026-05-07 15:00 36.07583 10.42131 31 ft 12 kts 90°
2026-05-07 15:00 36.07583 10.42376 28 ft 61 kts 90°
2026-05-07 15:00 36.07580 10.43190 31 ft 126 kts 90°
2026-05-07 15:01 36.07569 10.44472 241 ft 159 kts 91°
2026-05-07 15:01 36.07556 10.45877 936 ft 164 kts 88°
2026-05-07 15:01 36.07910 10.47176 1830 ft 163 kts 57°
2026-05-07 15:01 36.08710 10.48261 2330 ft 186 kts 35°
2026-05-07 15:02 36.09993 10.48819 2781 ft 205 kts
2026-05-07 15:02 36.11440 10.48823 3328 ft 215 kts
2026-05-07 15:02 36.13023 10.48912 3588 ft 237 kts
2026-05-07 15:02 36.14711 10.49052 4073 ft 255 kts
2026-05-07 15:03 36.16543 10.49198 4612 ft 269 kts
2026-05-07 15:03 36.18421 10.49338 5304 ft 277 kts
2026-05-07 15:03 36.20349 10.49473 6183 ft 278 kts 360°
2026-05-07 15:03 36.22308 10.49603 6883 ft 285 kts 359°
2026-05-07 15:04 36.24307 10.49731 7629 ft 289 kts 359°
2026-05-07 15:04 36.26333 10.49907 8387 ft 296 kts
2026-05-07 15:04 36.28375 10.50407 9121 ft 303 kts
2026-05-07 15:04 36.30441 10.51049 9842 ft 309 kts 10°
2026-05-07 15:05 36.32562 10.51732 10315 ft 324 kts 10°
2026-05-07 15:05 36.34828 10.52449 10487 ft 347 kts 10°
2026-05-07 15:05 36.37217 10.53191 10968 ft 359 kts 10°
2026-05-07 15:05 36.39654 10.53940 11661 ft 362 kts
2026-05-07 15:06 36.42116 10.54688 12408 ft 365 kts
2026-05-07 15:06 36.44586 10.55432 13116 ft 368 kts
2026-05-07 15:06 36.47098 10.56183 13789 ft 373 kts
2026-05-07 15:06 36.49639 10.56941 14377 ft 378 kts
2026-05-07 15:07 36.52179 10.57697 14942 ft 383 kts
2026-05-07 15:07 36.54788 10.58474 15537 ft 388 kts
2026-05-07 15:07 36.57435 10.59263 16135 ft 392 kts
2026-05-07 15:07 36.60106 10.60060 16701 ft 397 kts
2026-05-07 15:08 36.62815 10.60869 17275 ft 402 kts
2026-05-07 15:08 36.65556 10.61689 17856 ft 406 kts
2026-05-07 15:08 36.68315 10.62515 18387 ft 411 kts
2026-05-07 15:08 36.71112 10.63352 18900 ft 414 kts
2026-05-07 15:09 36.73890 10.64185 19410 ft 417 kts
2026-05-07 15:09 36.76733 10.64999 19941 ft 419 kts
2026-05-07 15:09 36.79621 10.65366 20443 ft 415 kts 354°
2026-05-07 15:09 36.82513 10.65317 20994 ft 415 kts 352°
2026-05-07 15:10 36.84424 10.65246 21345 ft 416 kts 351°
2026-05-07 15:10 36.87326 10.65124 21848 ft 419 kts 351°
2026-05-07 15:10 36.90252 10.65007 22344 ft 422 kts 351°
2026-05-07 15:10 36.93196 10.64904 22814 ft 425 kts 351°
2026-05-07 15:11 36.96166 10.64813 23305 ft 428 kts 351°
2026-05-07 15:11 36.99145 10.64732 23737 ft 430 kts 351°
2026-05-07 15:11 37.02148 10.64654 24101 ft 433 kts 351°
2026-05-07 15:11 37.05180 10.64576 24448 ft 437 kts 351°
2026-05-07 15:12 37.08236 10.64497 24807 ft 440 kts 351°
2026-05-07 15:12 37.11308 10.64418 25161 ft 443 kts 351°
2026-05-07 15:12 37.14365 10.64339 25502 ft 447 kts 351°
2026-05-07 15:12 37.17484 10.64258 25835 ft 450 kts 351°
2026-05-07 15:13 37.20625 10.64176 26162 ft 454 kts 352°
2026-05-07 15:13 37.23820 10.64382 26475 ft 465 kts
2026-05-07 15:13 37.27026 10.65232 26787 ft 476 kts 10°
2026-05-07 15:13 37.30213 10.66450 27121 ft 480 kts 12°
2026-05-07 15:14 37.33403 10.67744 27427 ft 484 kts 12°
2026-05-07 15:14 37.36617 10.69069 27715 ft 487 kts 12°
2026-05-07 15:14 37.39853 10.70397 28008 ft 490 kts 12°
2026-05-07 15:14 37.43116 10.71719 28309 ft 493 kts 12°
2026-05-07 15:15 37.46395 10.73033 28592 ft 496 kts 12°
2026-05-07 15:15 37.49697 10.74343 28873 ft 499 kts 12°
2026-05-07 15:15 37.53022 10.75656 29159 ft 502 kts 12°
2026-05-07 15:15 37.56358 10.76971 29434 ft 505 kts 12°
2026-05-07 15:16 37.59675 10.78278 29704 ft 507 kts 12°
2026-05-07 15:16 37.63049 10.79609 29968 ft 510 kts 12°
2026-05-07 15:16 37.66447 10.80952 30198 ft 512 kts 12°
2026-05-07 15:16 37.69852 10.82300 30443 ft 514 kts 11°
2026-05-07 15:17 37.73268 10.83654 30696 ft 515 kts 11°
2026-05-07 15:17 37.76694 10.85014 30960 ft 516 kts 11°
2026-05-07 15:17 37.80115 10.86375 31283 ft 515 kts 11°
2026-05-07 15:17 37.83529 10.87735 31626 ft 514 kts 11°
2026-05-07 15:18 37.86940 10.89094 31958 ft 513 kts 11°
2026-05-07 15:18 37.90351 10.90454 32242 ft 513 kts 10°
2026-05-07 15:18 37.93759 10.91812 32520 ft 513 kts 10°
2026-05-07 15:18 37.97173 10.93175 32813 ft 513 kts 10°
2026-05-07 15:19 38.00575 10.94534 33099 ft 513 kts
2026-05-07 15:19 38.03936 10.95878 33369 ft 513 kts
2026-05-07 15:19 38.07342 10.97241 33626 ft 513 kts
2026-05-07 15:19 38.10751 10.98606 33884 ft 514 kts
2026-05-07 15:20 38.14160 10.99974 34113 ft 514 kts
2026-05-07 15:20 38.17570 11.01343 34351 ft 513 kts
2026-05-07 15:20 38.20976 11.02713 34599 ft 512 kts
2026-05-07 15:20 38.24374 11.04081 34840 ft 512 kts
2026-05-07 15:21 38.27761 11.05445 35108 ft 510 kts
2026-05-07 15:21 38.31141 11.06810 35413 ft 508 kts
2026-05-07 15:21 38.34505 11.08169 35684 ft 506 kts
2026-05-07 15:21 38.37872 11.09529 35883 ft 506 kts
2026-05-07 15:22 38.44628 11.12253 35906 ft 510 kts
2026-05-07 15:22 38.51367 11.14987 35897 ft 507 kts
2026-05-07 15:23 38.58019 11.17693 35900 ft 503 kts
2026-05-07 15:23 38.64670 11.20400 35905 ft 501 kts
2026-05-07 15:24 38.71308 11.23104 35913 ft 500 kts
2026-05-07 15:24 38.77940 11.25809 35915 ft 501 kts
2026-05-07 15:25 38.84611 11.28535 35919 ft 503 kts
2026-05-07 15:25 38.91297 11.31274 35920 ft 506 kts
2026-05-07 15:26 38.97994 11.34025 35923 ft 509 kts
2026-05-07 15:26 39.04747 11.36806 35916 ft 511 kts
2026-05-07 15:27 39.11532 11.39607 35917 ft 512 kts
2026-05-07 15:27 39.18321 11.42415 35919 ft 512 kts
2026-05-07 15:28 39.25112 11.45230 35916 ft 512 kts
2026-05-07 15:28 39.31892 11.48045 35918 ft 511 kts
2026-05-07 15:29 39.38647 11.50856 35919 ft 509 kts
2026-05-07 15:29 39.45339 11.53645 35921 ft 507 kts
2026-05-07 15:30 39.52049 11.56447 35925 ft 506 kts
2026-05-07 15:30 39.58745 11.59248 35927 ft 505 kts
2026-05-07 15:31 39.65422 11.62047 35931 ft 504 kts
2026-05-07 15:31 39.72091 11.64848 35936 ft 503 kts
2026-05-07 15:32 39.78752 11.67652 35938 ft 503 kts
2026-05-07 15:32 39.85411 11.70460 35935 ft 503 kts
2026-05-07 15:33 39.92076 11.73276 35945 ft 504 kts
2026-05-07 15:33 39.98745 11.76100 35943 ft 504 kts
2026-05-07 15:34 40.05423 11.78935 35947 ft 505 kts
2026-05-07 15:34 40.12099 11.81774 35946 ft 505 kts
2026-05-07 15:35 40.18736 11.84604 35947 ft 505 kts
2026-05-07 15:35 40.25409 11.87454 35950 ft 504 kts
2026-05-07 15:36 40.32080 11.90309 35945 ft 503 kts
2026-05-07 15:36 40.38732 11.93163 35948 ft 502 kts
2026-05-07 15:37 40.45375 11.96018 35950 ft 501 kts
2026-05-07 15:37 40.51948 11.98850 35956 ft 500 kts
2026-05-07 15:38 40.58550 12.01699 35950 ft 498 kts
2026-05-07 15:38 40.65132 12.04545 35956 ft 496 kts
2026-05-07 15:39 40.71692 12.07387 35956 ft 495 kts
2026-05-07 15:39 40.78223 12.10223 35955 ft 493 kts
2026-05-07 15:40 40.84738 12.13058 35954 ft 492 kts
2026-05-07 15:40 40.91185 12.15869 35960 ft 490 kts
2026-05-07 15:41 40.97655 12.18695 35959 ft 489 kts
2026-05-07 15:41 41.04115 12.21523 35960 ft 488 kts
2026-05-07 15:42 41.10571 12.24353 35958 ft 488 kts
2026-05-07 15:42 41.17015 12.27186 35957 ft 488 kts
2026-05-07 15:43 41.23477 12.30033 35958 ft 489 kts
2026-05-07 15:43 41.29936 12.32884 35961 ft 489 kts
2026-05-07 15:44 41.36369 12.35729 35964 ft 490 kts
2026-05-07 15:44 41.42851 12.38603 35966 ft 491 kts
2026-05-07 15:45 41.49351 12.41490 35970 ft 492 kts
2026-05-07 15:45 41.55850 12.44383 35971 ft 493 kts
2026-05-07 15:46 41.65566 12.48721 35979 ft 493 kts
2026-05-07 15:47 41.72069 12.51633 35962 ft 493 kts
2026-05-07 15:47 41.78565 12.54547 35945 ft 492 kts
2026-05-07 15:48 41.85064 12.57469 35944 ft 491 kts
2026-05-07 15:48 41.91539 12.60387 35938 ft 489 kts
2026-05-07 15:49 41.97971 12.63291 35949 ft 488 kts
2026-05-07 15:49 42.04410 12.66204 35939 ft 487 kts
2026-05-07 15:50 42.10814 12.69107 35952 ft 485 kts
2026-05-07 15:50 42.17169 12.71994 35965 ft 484 kts
2026-05-07 15:51 42.23553 12.74899 35981 ft 483 kts
2026-05-07 15:51 42.29920 12.77803 35982 ft 482 kts 10°
2026-05-07 15:52 42.36276 12.80708 35995 ft 482 kts 10°
2026-05-07 15:52 42.42586 12.83600 35995 ft 481 kts 10°
2026-05-07 15:53 42.48921 12.86511 35998 ft 481 kts 10°
2026-05-07 15:53 42.55263 12.89429 36005 ft 481 kts 10°
2026-05-07 15:54 42.61616 12.92358 36003 ft 481 kts 11°
2026-05-07 15:54 42.67956 12.95290 35999 ft 480 kts 11°
2026-05-07 15:55 42.74239 12.98200 36002 ft 479 kts 11°
2026-05-07 15:55 42.80557 13.01131 35984 ft 480 kts 11°
2026-05-07 15:56 42.86870 13.04070 35987 ft 479 kts 11°
2026-05-07 15:56 42.93184 13.07013 35988 ft 480 kts 12°
2026-05-07 15:57 42.99506 13.09965 35986 ft 480 kts 12°
2026-05-07 15:57 43.05788 13.12903 35985 ft 481 kts 12°
2026-05-07 15:58 43.12112 13.15874 35999 ft 480 kts 12°
2026-05-07 15:58 43.18432 13.18849 35979 ft 479 kts 12°
2026-05-07 15:59 43.24745 13.21821 35999 ft 478 kts 12°
2026-05-07 15:59 43.31045 13.24794 35988 ft 479 kts 12°
2026-05-07 16:00 43.37320 13.27765 35996 ft 479 kts 12°
2026-05-07 16:00 43.43626 13.30757 35993 ft 480 kts 12°
2026-05-07 16:01 43.48875 13.33252 36001 ft 480 kts 12°
2026-05-07 16:01 43.55200 13.36264 36000 ft 481 kts 13°
2026-05-07 16:02 43.61521 13.39282 36007 ft 481 kts 13°
2026-05-07 16:02 43.67854 13.42312 35987 ft 481 kts 12°
2026-05-07 16:03 43.74177 13.45345 35997 ft 480 kts 13°
2026-05-07 16:03 43.80486 13.48377 35999 ft 480 kts 13°
2026-05-07 16:04 43.86790 13.51414 35994 ft 479 kts 13°
2026-05-07 16:04 43.93049 13.54435 35989 ft 479 kts 13°
2026-05-07 16:05 43.99349 13.57484 35995 ft 478 kts 13°
2026-05-07 16:05 44.05633 13.60531 35992 ft 478 kts 13°
2026-05-07 16:06 44.11919 13.63586 35991 ft 478 kts 13°
2026-05-07 16:06 44.18198 13.66645 36000 ft 478 kts 14°
2026-05-07 16:07 44.24430 13.69700 35994 ft 478 kts 14°
2026-05-07 16:07 44.30585 13.72818 35996 ft 478 kts 15°
2026-05-07 16:08 44.36838 13.76022 35998 ft 478 kts 15°
2026-05-07 16:08 44.43092 13.79224 36003 ft 478 kts 15°
2026-05-07 16:09 44.49341 13.82423 36001 ft 478 kts 15°
2026-05-07 16:09 44.55563 13.85611 36010 ft 479 kts 15°
2026-05-07 16:10 44.61822 13.88825 36012 ft 479 kts 15°
2026-05-07 16:10 44.68076 13.92046 36015 ft 479 kts 15°
2026-05-07 16:11 44.74347 13.95282 36019 ft 479 kts 15°
2026-05-07 16:11 44.80610 13.98521 36021 ft 480 kts 15°
2026-05-07 16:12 44.86896 14.01781 36024 ft 480 kts 15°
2026-05-07 16:12 44.93131 14.05021 36023 ft 480 kts 15°
2026-05-07 16:13 44.99403 14.08288 36026 ft 481 kts 15°
2026-05-07 16:13 45.05684 14.11567 36013 ft 482 kts 15°
2026-05-07 16:14 45.11972 14.14857 36020 ft 481 kts 15°
2026-05-07 16:14 45.18264 14.18158 36021 ft 482 kts 15°
2026-05-07 16:15 45.24557 14.21467 36006 ft 483 kts 15°
2026-05-07 16:15 45.30853 14.24785 36017 ft 483 kts 15°
2026-05-07 16:16 45.37166 14.28121 36014 ft 483 kts 15°
2026-05-07 16:16 45.43420 14.31433 36021 ft 483 kts 15°
2026-05-07 16:17 45.49725 14.34780 36005 ft 483 kts 16°
2026-05-07 16:17 45.56032 14.38136 36003 ft 483 kts 15°
2026-05-07 16:18 45.62344 14.41503 35983 ft 483 kts 15°
2026-05-07 16:18 45.68652 14.44876 35979 ft 483 kts 16°
2026-05-07 16:19 45.74899 14.48225 35988 ft 483 kts 16°
2026-05-07 16:19 45.81194 14.51607 35975 ft 483 kts 16°
2026-05-07 16:20 45.87473 14.54988 35973 ft 482 kts 16°
2026-05-07 16:20 45.93756 14.58380 35972 ft 482 kts 16°
2026-05-07 16:21 46.00025 14.61771 35961 ft 482 kts 16°
2026-05-07 16:21 46.06341 14.65196 36272 ft 484 kts 17°
2026-05-07 16:21 46.09444 14.66884 36590 ft 481 kts 17°
2026-05-07 16:22 46.12574 14.68589 36818 ft 481 kts 17°
2026-05-07 16:22 46.15705 14.70294 36954 ft 482 kts 17°
2026-05-07 16:22 46.18850 14.72008 36948 ft 484 kts 17°
2026-05-07 16:23 46.25144 14.75448 36958 ft 482 kts 17°
2026-05-07 16:23 46.31400 14.78876 36936 ft 479 kts 17°
2026-05-07 16:24 46.37622 14.82294 36940 ft 477 kts 17°
2026-05-07 16:24 46.43841 14.85716 36920 ft 477 kts 17°
2026-05-07 16:25 46.50002 14.89115 36923 ft 475 kts 17°
2026-05-07 16:25 46.56187 14.92534 36909 ft 475 kts 18°
2026-05-07 16:26 46.62366 14.95962 36917 ft 476 kts 18°
2026-05-07 16:26 46.68560 14.99406 36917 ft 477 kts 18°
2026-05-07 16:27 46.74770 15.02866 36926 ft 478 kts 18°
2026-05-07 16:27 46.81008 15.06348 36911 ft 480 kts 18°
2026-05-07 16:28 46.87249 15.09845 36925 ft 481 kts 18°
2026-05-07 16:28 46.93507 15.13360 36920 ft 482 kts 18°
2026-05-07 16:29 46.99718 15.16856 36926 ft 482 kts 18°
2026-05-07 16:29 47.05973 15.20385 36929 ft 483 kts 18°
2026-05-07 16:30 47.12292 15.23962 36925 ft 483 kts 18°
2026-05-07 16:30 47.18561 15.27515 36938 ft 483 kts 18°
2026-05-07 16:31 47.24782 15.31052 36959 ft 482 kts 18°
2026-05-07 16:31 47.31056 15.34628 36978 ft 483 kts 18°
2026-05-07 16:32 47.37344 15.38221 36982 ft 485 kts 18°
2026-05-07 16:32 47.43645 15.41831 36980 ft 486 kts 19°
2026-05-07 16:33 47.49954 15.45456 37002 ft 487 kts 19°
2026-05-07 16:33 47.56280 15.49099 36998 ft 487 kts 19°
2026-05-07 16:34 47.62600 15.52748 36999 ft 488 kts 19°
2026-05-07 16:34 47.68898 15.56394 36985 ft 489 kts 19°
2026-05-07 16:35 47.75220 15.60065 37000 ft 488 kts 19°
2026-05-07 16:35 47.81564 15.63754 36990 ft 489 kts 19°
2026-05-07 16:36 47.87904 15.67454 36998 ft 488 kts 19°
2026-05-07 16:36 47.94186 15.71131 36975 ft 487 kts 19°
2026-05-07 16:37 48.00485 15.74823 36988 ft 486 kts 19°
2026-05-07 16:37 48.06777 15.78525 36982 ft 485 kts 19°
2026-05-07 16:38 48.13044 15.82220 36974 ft 484 kts 19°
2026-05-07 16:38 48.19310 15.85925 36966 ft 483 kts 19°
2026-05-07 16:39 48.25557 15.89628 36974 ft 482 kts 19°
2026-05-07 16:39 48.31795 15.93335 36954 ft 482 kts 19°
2026-05-07 16:40 48.37987 15.97025 36959 ft 481 kts 19°
2026-05-07 16:40 48.44213 16.00745 36955 ft 481 kts 19°
2026-05-07 16:41 48.50433 16.04471 36950 ft 481 kts 19°
2026-05-07 16:41 48.56662 16.08212 36955 ft 481 kts 19°
2026-05-07 16:42 48.62886 16.11961 36940 ft 481 kts 19°
2026-05-07 16:42 48.69104 16.15716 36944 ft 481 kts 19°
2026-05-07 16:43 48.75274 16.19718 36928 ft 486 kts 28°
2026-05-07 16:43 48.80703 16.25963 36932 ft 496 kts 45°
2026-05-07 16:44 48.85514 16.33577 36943 ft 503 kts 46°
2026-05-07 16:44 48.90363 16.41296 36937 ft 506 kts 45°
2026-05-07 16:45 48.95255 16.49014 36938 ft 508 kts 45°
2026-05-07 16:45 49.00153 16.56715 36935 ft 508 kts 45°
2026-05-07 16:46 49.05062 16.64450 36941 ft 508 kts 45°
2026-05-07 16:46 49.09960 16.72193 36935 ft 507 kts 45°
2026-05-07 16:47 49.14853 16.79958 36938 ft 506 kts 45°
2026-05-07 16:47 49.19723 16.87709 36940 ft 505 kts 45°
2026-05-07 16:48 49.24559 16.95429 36938 ft 504 kts 45°
2026-05-07 16:48 49.29442 17.03248 36943 ft 504 kts 45°
2026-05-07 16:49 49.34254 17.10976 36895 ft 505 kts 46°
2026-05-07 16:49 49.36690 17.14898 36598 ft 508 kts 45°
2026-05-07 16:49 49.39121 17.18817 36338 ft 506 kts 45°
2026-05-07 16:49 49.40738 17.21428 36168 ft 506 kts 45°
2026-05-07 16:50 49.43161 17.25345 35918 ft 506 kts 45°
2026-05-07 16:50 49.45586 17.29270 35673 ft 507 kts 45°
2026-05-07 16:50 49.48015 17.33209 35421 ft 507 kts 45°
2026-05-07 16:50 49.50441 17.37149 34782 ft 508 kts 45°
2026-05-07 16:51 49.52865 17.41091 34138 ft 507 kts 45°
2026-05-07 16:51 49.55295 17.45049 33375 ft 509 kts 45°
2026-05-07 16:51 49.57725 17.49013 32620 ft 510 kts 45°
2026-05-07 16:51 49.60165 17.52999 31884 ft 510 kts 46°
2026-05-07 16:52 49.62607 17.56994 31131 ft 511 kts 46°
2026-05-07 16:52 49.65040 17.60983 30371 ft 512 kts 46°
2026-05-07 16:52 49.67484 17.64996 29492 ft 513 kts 46°
2026-05-07 16:52 49.69930 17.69018 28567 ft 513 kts 46°
2026-05-07 16:53 49.72362 17.73025 27702 ft 512 kts 47°
2026-05-07 16:53 49.74805 17.77054 26685 ft 514 kts 47°
2026-05-07 16:53 49.77255 17.81102 25701 ft 516 kts 47°
2026-05-07 16:53 49.79688 17.85128 25028 ft 510 kts 47°
2026-05-07 16:54 49.82069 17.89075 24333 ft 505 kts 47°
2026-05-07 16:54 49.84485 17.93084 23631 ft 501 kts 47°
2026-05-07 16:54 49.86823 17.96972 22842 ft 497 kts 47°
2026-05-07 16:54 49.89160 18.00863 22108 ft 491 kts 47°
2026-05-07 16:55 49.91482 18.04736 21414 ft 485 kts 47°
2026-05-07 16:55 49.93768 18.08555 20640 ft 480 kts 47°
2026-05-07 16:55 49.96023 18.12326 19960 ft 474 kts 47°
2026-05-07 16:55 49.98252 18.16060 19284 ft 469 kts 47°
2026-05-07 16:56 50.00457 18.19780 18609 ft 465 kts 49°
2026-05-07 16:56 50.02436 18.23711 17920 ft 460 kts 56°
2026-05-07 16:56 50.05627 18.32105 17052 ft 438 kts 65°
2026-05-07 16:57 50.06958 18.36301 16770 ft 427 kts 65°
2026-05-07 16:57 50.08238 18.40396 16504 ft 415 kts 65°
2026-05-07 16:57 50.09490 18.44406 16021 ft 410 kts 65°
2026-05-07 16:57 50.10738 18.48395 15463 ft 408 kts 65°
2026-05-07 16:58 50.11970 18.52315 14875 ft 407 kts 65°
2026-05-07 16:58 50.13232 18.56320 14276 ft 406 kts 65°
2026-05-07 16:58 50.14478 18.60270 13682 ft 405 kts 65°
2026-05-07 16:58 50.15722 18.64210 13135 ft 405 kts 65°
2026-05-07 16:59 50.16943 18.68085 12520 ft 403 kts 65°
2026-05-07 16:59 50.18173 18.71992 11905 ft 401 kts 65°
2026-05-07 16:59 50.19398 18.75889 11308 ft 399 kts 66°
2026-05-07 16:59 50.20599 18.79712 11121 ft 385 kts 66°
2026-05-07 17:00 50.21762 18.83420 10947 ft 373 kts 66°
2026-05-07 17:00 50.22884 18.87006 10786 ft 363 kts 66°
2026-05-07 17:00 50.23988 18.90541 10639 ft 362 kts 66°
2026-05-07 17:00 50.25090 18.94081 10505 ft 362 kts 66°
2026-05-07 17:01 50.26192 18.97624 10326 ft 364 kts 66°
2026-05-07 17:01 50.27301 19.01196 9883 ft 366 kts 66°
2026-05-07 17:01 50.28401 19.04736 9346 ft 357 kts 66°
2026-05-07 17:01 50.29471 19.08183 8824 ft 348 kts 66°
2026-05-07 17:02 50.30516 19.11553 8311 ft 340 kts 66°
2026-05-07 17:02 50.31534 19.14847 7805 ft 333 kts 66°
2026-05-07 17:02 50.32531 19.18076 7305 ft 327 kts 66°
2026-05-07 17:02 50.33511 19.21259 6812 ft 322 kts 66°
2026-05-07 17:03 50.34463 19.24352 6329 ft 317 kts 66°
2026-05-07 17:03 50.35414 19.27444 5781 ft 315 kts 66°
2026-05-07 17:03 50.36361 19.30527 5247 ft 313 kts 66°
2026-05-07 17:03 50.37300 19.33584 4696 ft 310 kts 66°
2026-05-07 17:04 50.38229 19.36618 4205 ft 306 kts 66°
2026-05-07 17:04 50.39499 19.39173 4022 ft 293 kts 35°
2026-05-07 17:04 50.41320 19.40320 3997 ft 276 kts
2026-05-07 17:04 50.43184 19.40438 3998 ft 261 kts 351°
2026-05-07 17:05 50.44897 19.39780 3987 ft 246 kts 338°
2026-05-07 17:05 50.46318 19.38607 3978 ft 222 kts 308°
2026-05-07 17:05 50.46961 19.36592 4023 ft 201 kts 280°
2026-05-07 17:05 50.47307 19.34459 4004 ft 199 kts 276°
2026-05-07 17:06 50.47491 19.32355 3884 ft 196 kts 272°
2026-05-07 17:06 50.47572 19.30249 3638 ft 190 kts 267°
2026-05-07 17:06 50.47583 19.28198 3395 ft 186 kts 266°
2026-05-07 17:06 50.47582 19.26185 3160 ft 183 kts 265°
2026-05-07 17:07 50.47582 19.24211 2897 ft 175 kts 265°
2026-05-07 17:07 50.47584 19.22369 2702 ft 165 kts 266°
2026-05-07 17:07 50.47585 19.20577 2481 ft 163 kts 266°
2026-05-07 17:07 50.47586 19.18837 2282 ft 156 kts 265°
2026-05-07 17:08 50.47586 19.17157 2041 ft 152 kts 266°
2026-05-07 17:08 50.47586 19.15512 1801 ft 152 kts 269°
2026-05-07 17:08 50.47587 19.13844 1566 ft 154 kts 271°
2026-05-07 17:08 50.47592 19.12132 1313 ft 159 kts 273°
2026-05-07 17:09 50.47590 19.10388 1086 ft 158 kts 273°
2026-05-07 17:09 50.47598 19.08760 1000 ft 127 kts 270°
2026-05-07 17:09 50.47601 19.07718 999 ft 67 kts 270°
2026-05-07 17:09 50.47579 19.07135 1001 ft 27 kts 252°
2026-05-07 17:10 50.47507 19.06905 1001 ft 14 kts 240°
2026-05-07 17:10 50.47459 19.06772 1001 ft 14 kts 240°
2026-05-07 17:10 50.47411 19.06646 997 ft 13 kts 226°
2026-05-07 17:10 50.47324 19.06625 997 ft 13 kts 180°
2026-05-07 17:11 50.47244 19.06660 1001 ft 12 kts 127°
2026-05-07 17:11 50.47236 19.06792 997 ft 12 kts 90°
2026-05-07 17:11 50.47236 19.06916 1000 ft 11 kts 90°
2026-05-07 17:11 50.47235 19.07032 1000 ft 10 kts 90°
2026-05-07 17:12 50.47235 19.07144 1002 ft 10 kts 90°
2026-05-07 17:12 50.47235 19.07253 1000 ft 8 kts 90°
2026-05-07 17:12 50.47229 19.07272 1001 ft 2 kts 131°
2026-05-07 17:12 50.47216 19.07280 1002 ft 3 kts 176°
2026-05-07 17:13 50.47186 19.07279 1001 ft 4 kts 181°
2026-05-07 17:13 50.47179 19.07279 999 ft 0 kts 180°